Wetbulb
27.22 27.18 29.42 29.50 28.94 27.52 23.15 24.66 24.31 23.64 24.23 28.25 31.17 33.26 35.25 35.98 36.14 35.47 35.79 35.82 35.93 36.08 36.65 37.09 37.27 37.62 38.11 38.93 39.82 40.40 40.21 41.00 41.87 42.69 42.76 42.64 42.90 43.70 44.49 45.26 45.80 45.77 45.01 44.58
24.21 27.39 27.81 27.17 29.09 28.39 28.48 27.64 25.07 26.30 26.65 31.59 33.99 34.20 34.93 34.84 34.26 33.82 34.63 35.45 35.40 35.46 35.53 35.60 35.97 36.48 36.94 37.38 38.10 38.66 38.40 38.92 40.36 41.43 41.73 41.85 42.01 42.36 42.77 43.39 44.11 44.26 43.72 43.51
19.94 24.23 24.28 21.01 24.34 27.70 28.66 28.78 29.60 26.39 30.39 33.51 32.95 34.17 34.84 33.97 33.02 33.43 33.97 33.99 34.00 34.20 34.33 34.78 35.40 36.06 35.48 36.17 36.82 36.65 37.10 37.99 38.74 39.81 40.45 41.04 40.89 40.72 40.97 41.33 41.84 41.95 42.23 42.19
20.46 20.15 15.71 23.49 27.10 29.65 29.31 29.56 30.62 30.93 31.71 33.15 33.44 34.22 33.60 32.86 32.71 32.18 32.34 32.86 33.48 33.74 34.40 35.36 35.35 35.13 35.30 35.51 35.28 35.60 36.08 36.81 37.87 38.67 39.03 39.59 39.38 39.32 39.53 39.58 39.70 39.99 39.98 40.24
19.15 16.90 21.43 23.89 26.05 26.93 27.06 25.69 29.13 30.14 31.50 31.81 31.67 31.50 31.42 32.81 32.39 32.64 32.87 33.28 33.43 33.96 34.21 34.54 34.33 34.92 34.02 34.07 34.34 34.52 35.31 35.84 36.80 37.68 37.76 38.18 38.03 38.33 38.43 37.52 37.82 38.03 38.21 38.47
21.55 17.24 17.06 23.91 28.15 30.75 29.27 23.08 28.69 30.03 29.52 30.35 30.49 27.21 29.26 32.03 32.75 33.44 33.57 33.66 33.68 34.38 34.24 33.57 34.86 34.62 33.27 33.56 33.27 33.64 34.95 35.48 36.22 37.25 37.36 37.26 37.37 37.34 37.49 36.87 36.71 36.89 36.72 37.31
23.14 21.09 23.45 28.56 31.15 31.02 22.74 24.99 30.87 31.98 31.08 30.57 29.08 30.83 31.94 32.55 33.33 33.58 33.72 33.92 34.86 34.02 33.45 34.03 34.60 34.01 33.18 33.42 33.07 34.95 35.10 35.13 35.59 36.46 36.21 36.68 36.70 36.52 36.37 36.03 35.39 35.43 35.11 36.22
25.61 21.32 17.77 30.96 31.37 28.40 30.80 31.08 32.46 32.33 32.26 31.89 31.72 32.01 32.11 32.55 32.70 33.16 33.13 33.65 34.26 33.26 33.35 34.59 34.56 33.28 33.18 33.26 35.83 34.75 34.26 34.11 34.36 34.60 34.66 35.14 34.61 35.33 35.06 34.66 34.37 34.55 34.35 34.89
25.73 25.44 30.40 30.61 30.47 32.39 33.11 32.78 32.87 32.91 33.02 33.07 32.47 32.50 32.98 33.00 32.91 32.91 33.04 33.47 33.94 33.30 33.48 33.67 33.56 33.04 32.06 34.42 34.68 34.03 33.55 33.95 34.26 34.29 34.76 34.82 34.54 34.73 34.52 34.56 33.96 33.93 33.95 34.18
26.43 27.77 29.54 31.41 32.10 31.55 32.10 31.52 32.58 32.49 32.50 32.71 31.98 32.57 32.45 32.48 32.36 32.42 33.04 32.74 33.44 32.57 32.03 32.07 33.28 32.87 32.63 33.31 34.01 32.83 32.69 33.71 34.53 34.41 36.57 36.01 35.21 34.79 34.34 34.15 34.07 33.95 33.93 34.20
25.17 27.96 27.16 28.48 29.35 30.69 31.16 31.78 31.79 32.16 32.49 32.38 32.11 31.89 31.79 31.57 31.58 31.76 32.15 32.85 32.70 31.73 31.71 32.11 33.46 33.37 33.35 33.37 33.54 33.02 32.98 32.95 33.59 34.31 34.30 34.59 34.49 34.39 34.57 35.23 35.21 34.71 35.04 34.76
24.90 28.88 28.81 28.08 29.48 30.41 30.64 30.39 30.73 30.75 30.32 31.14 31.32 30.62 31.15 30.58 31.31 31.38 31.79 32.37 31.61 31.72 31.46 31.95 32.50 32.96 33.82 34.43 33.44 32.51 32.44 33.30 33.30 33.95 34.31 33.84 33.12 33.60 36.47 37.91 38.99 39.71 40.05 39.60
28.97 28.56 29.25 29.50 30.39 30.06 30.09 30.71 30.96 29.96 29.76 29.13 30.01 30.41 30.65 30.25 30.91 32.90 31.09 30.75 30.53 30.73 31.46 31.90 32.09 32.51 33.46 33.81 33.32 32.56 31.97 32.28 32.86 33.38 32.54 32.11 32.35 32.30 32.18 35.25 36.88 37.85 38.74 39.35
29.74 30.36 28.32 29.34 29.87 31.74 31.81 31.10 31.56 30.16 30.45 30.22 30.05 30.03 29.85 29.42 30.12 29.61 29.51 30.24 30.51 30.33 30.27 30.71 30.99 31.43 33.16 33.12 32.59 32.42 32.55 34.18 32.90 32.48 32.16 32.23 32.12 32.42 32.39 32.19 32.39 33.36 35.58 36.77
28.34 30.07 30.89 30.72 30.37 30.16 30.79 30.88 29.46 28.87 29.29 29.36 29.92 29.24 28.73 27.87 27.94 28.67 29.34 29.23 28.92 28.74 29.00 29.74 29.98 30.78 32.67 32.06 31.33 31.52 32.00 32.44 32.75 32.90 32.91 33.48 34.14 33.58 33.30 33.10 32.94 33.23 34.16 36.42
28.54 29.45 29.43 29.09 29.11 28.85 27.74 27.35 26.74 27.85 28.67 28.66 28.46 28.39 28.14 27.47 27.52 27.89 28.43 27.94 26.72 27.35 28.89 28.95 29.12 30.64 31.70 31.20 30.65 31.49 32.25 34.04 34.92 33.80 33.08 32.85 32.51 32.49 32.95 33.57 34.03 34.06 34.90 35.96
27.29 26.84 28.44 27.83 28.31 27.17 26.80 27.30 26.91 26.77 27.05 26.98 27.08 27.61 27.08 26.93 26.50 26.17 26.44 26.85 27.13 27.13 28.15 28.37 28.72 30.43 30.72 30.51 29.99 31.41 31.69 32.02 34.53 33.34 31.65 31.79 31.87 31.89 32.32 32.68 32.99 33.49 33.87 35.12
29.39 28.06 27.48 26.87 26.44 25.81 26.15 26.62 26.85 26.99 26.58 27.60 27.87 27.02 26.23 25.58 25.63 26.76 27.56 27.46 26.81 26.95 27.71 28.59 29.05 29.36 29.92 30.42 31.05 31.32 31.16 31.58 31.77 31.54 32.33 31.43 31.18 31.72 31.71 31.66 32.15 32.45 33.03 33.53
27.03 26.19 25.89 27.11 26.77 26.31 26.19 26.29 26.77 27.30 27.19 27.18 26.13 25.94 26.13 26.31 26.73 27.03 27.16 24.98 24.91 24.99 27.72 28.64 30.21 31.64 30.05 30.80 32.67 32.04 32.12 31.39 31.08 30.97 31.89 33.51 32.55 32.15 31.71 31.55 31.66 32.15 32.50 32.05
24.52 25.54 25.37 26.30 26.09 26.11 25.86 26.50 26.35 25.71 26.53 26.07 25.93 25.45 25.20 26.19 26.82 26.36 26.05 24.75 26.40 27.86 29.23 29.49 29.45 28.95 29.72 30.59 33.02 31.79 31.54 30.86 30.80 30.83 31.27 31.97 32.57 32.39 32.09 32.62 32.36 32.42 32.48 32.33
24.56 25.14 25.30 24.73 24.59 25.26 25.59 25.56 24.79 24.64 25.80 25.55 25.10 25.32 25.65 26.50 26.46 26.02 24.37 24.18 27.75 29.37 28.97 30.43 30.06 30.35 30.79 31.76 31.92 31.58 32.07 30.93 30.68 30.61 31.07 31.53 31.84 32.25 32.41 32.41 32.26 32.41 32.47 32.61
24.58 23.86 24.44 24.08 23.56 23.75 24.79 24.31 23.84 24.31 24.52 25.09 25.54 25.19 24.52 24.64 25.23 25.11 26.11 25.82 28.87 31.98 30.59 29.33 29.24 30.61 31.07 33.78 32.67 31.83 31.35 30.54 30.00 30.72 31.06 31.66 31.88 32.17 32.71 32.93 32.74 32.70 33.10 33.07
23.33 23.01 23.74 23.40 23.29 23.78 23.54 23.56 24.12 24.38 24.29 24.72 24.68 24.79 24.74 25.55 26.23 24.56 24.57 27.98 28.24 28.89 29.53 29.27 31.41 33.43 34.60 33.08 32.12 30.93 30.27 29.80 29.54 30.56 31.39 32.03 31.71 31.89 32.33 32.15 32.24 32.48 32.71 32.76
24.01 23.57 22.70 24.54 22.76 21.99 21.27 24.39 24.47 24.98 24.83 25.49 25.76 26.09 25.43 24.95 25.91 27.02 27.37 30.28 31.80 31.54 30.13 30.58 31.57 33.76 34.63 31.94 31.21 30.23 29.29 28.85 29.34 30.96 31.80 33.09 32.27 32.49 32.39 32.18 32.33 32.98 32.90 33.34
23.12 22.71 22.74 21.85 21.64 23.23 24.11 24.80 24.01 23.91 23.76 23.80 24.50 25.57 26.20 26.72 25.77 27.55 27.18 26.97 30.30 30.45 28.89 31.04 32.48 33.09 31.39 30.23 29.07 28.33 28.30 28.60 30.02 30.68 31.45 31.96 32.17 32.47 32.36 32.56 32.46 32.48 32.40 32.15
21.92 22.90 23.81 24.19 24.39 25.12 25.55 25.56 24.28 25.38 25.20 24.42 25.47 26.14 26.28 26.83 26.24 27.52 27.20 28.45 27.65 28.91 28.52 28.80 28.77 29.08 28.62 28.32 28.16 27.76 27.76 28.96 30.44 30.80 31.83 32.68 32.20 31.80 31.63 31.55 31.07 30.68 30.82 30.93
22.43 26.54 24.14 23.90 24.80 24.94 24.97 24.77 23.84 23.96 25.67 25.32 25.32 27.01 26.94 27.27 27.07 28.04 28.96 27.71 27.89 28.07 28.15 28.30 28.33 28.69 27.85 27.58 28.17 27.85 28.08 30.13 31.87 31.58 32.65 32.01 31.00 30.01 29.50 28.79 28.61 28.83 28.63 28.27
MSLP
1024.74 1024.75 1024.89 1024.91 1025.05 1025.38 1025.66 1025.10 1024.92 1023.81 1023.58 1022.76 1022.62 1022.55 1022.37 1022.49 1022.62 1022.76 1022.82 1022.90 1022.82 1022.62 1022.26 1021.90 1021.49 1021.03 1020.71 1020.24 1019.71 1019.44 1018.97 1018.57 1018.12 1017.88 1017.60 1017.32 1017.21 1017.14 1017.05 1016.99 1016.95 1017.04 1017.11 1017.08
1024.80 1024.68 1024.72 1024.48 1024.20 1024.50 1024.59 1024.46 1024.03 1023.53 1022.84 1022.35 1022.02 1022.07 1022.27 1022.56 1022.69 1022.92 1023.11 1023.24 1023.05 1022.77 1022.43 1022.12 1021.74 1021.27 1020.89 1020.35 1019.79 1019.39 1018.79 1018.24 1017.76 1017.42 1017.14 1016.89 1016.69 1016.62 1016.61 1016.58 1016.58 1016.67 1016.63 1016.60
1025.37 1024.90 1024.43 1023.77 1022.59 1022.94 1023.11 1023.22 1023.11 1023.05 1022.17 1021.97 1022.03 1022.01 1022.18 1022.51 1022.97 1023.42 1023.58 1023.49 1023.23 1022.97 1022.68 1022.24 1021.75 1021.35 1020.82 1020.25 1019.64 1019.09 1018.64 1018.06 1017.52 1017.14 1016.78 1016.56 1016.50 1016.42 1016.30 1016.20 1016.27 1016.18 1016.11 1016.13
1025.83 1025.17 1024.29 1022.20 1021.90 1021.89 1022.21 1022.20 1022.26 1022.24 1022.01 1021.85 1021.95 1022.05 1022.37 1022.78 1023.38 1023.68 1023.63 1023.48 1023.30 1023.02 1022.53 1022.07 1021.71 1021.22 1020.71 1020.15 1019.61 1019.14 1018.58 1018.07 1017.52 1017.07 1016.57 1016.30 1016.30 1016.07 1015.91 1015.93 1015.91 1015.83 1015.71 1015.66
1025.98 1025.52 1023.33 1021.85 1021.64 1021.68 1021.76 1021.82 1021.67 1021.84 1022.04 1021.93 1021.97 1022.25 1022.79 1023.06 1023.39 1023.56 1023.56 1023.40 1023.14 1022.92 1022.57 1022.06 1021.68 1021.22 1020.87 1020.30 1019.78 1019.19 1018.60 1018.05 1017.50 1017.17 1016.68 1016.29 1016.01 1015.82 1015.70 1015.67 1015.44 1015.20 1015.12 1015.08
1026.20 1025.26 1023.26 1021.16 1020.82 1020.83 1021.08 1021.52 1021.50 1021.61 1021.95 1021.97 1022.14 1022.71 1023.12 1023.17 1023.38 1023.38 1023.33 1023.27 1023.10 1022.80 1022.53 1022.15 1021.65 1021.27 1020.81 1020.20 1019.73 1019.14 1018.59 1018.06 1017.47 1017.05 1016.69 1016.34 1016.07 1015.80 1015.49 1015.20 1014.89 1014.78 1014.65 1014.56
1026.21 1025.33 1022.70 1020.98 1020.62 1020.67 1021.09 1021.22 1021.00 1021.32 1021.82 1022.23 1022.60 1022.75 1022.96 1023.23 1023.25 1023.28 1023.17 1023.01 1022.92 1022.78 1022.56 1022.09 1021.60 1021.24 1020.70 1020.14 1019.65 1019.12 1018.56 1017.99 1017.43 1016.92 1016.58 1016.21 1015.88 1015.55 1015.31 1015.07 1014.94 1014.65 1014.31 1013.85
1025.67 1025.02 1022.86 1021.03 1021.10 1021.19 1020.66 1020.67 1020.74 1021.10 1021.42 1021.84 1022.29 1022.66 1022.98 1023.18 1023.32 1023.32 1023.29 1023.09 1022.90 1022.71 1022.36 1021.83 1021.41 1021.14 1020.67 1020.08 1019.41 1019.00 1018.51 1017.94 1017.31 1016.80 1016.42 1015.97 1015.67 1015.21 1014.96 1014.75 1014.47 1014.12 1013.84 1013.45
1023.50 1022.39 1021.46 1021.15 1020.77 1020.36 1020.48 1020.79 1021.18 1021.46 1021.88 1022.17 1022.44 1022.66 1022.87 1023.07 1023.21 1023.15 1023.08 1022.92 1022.73 1022.57 1022.22 1021.81 1021.41 1021.09 1020.63 1019.79 1019.34 1018.88 1018.37 1017.76 1017.19 1016.73 1016.26 1015.83 1015.44 1015.00 1014.73 1014.45 1014.18 1013.78 1013.57 1013.07
1022.79 1021.30 1021.09 1021.13 1021.09 1021.05 1021.10 1021.14 1021.29 1021.73 1022.23 1022.50 1022.73 1022.98 1023.10 1023.06 1023.02 1022.99 1022.88 1022.67 1022.42 1022.16 1021.77 1021.28 1020.89 1020.54 1020.27 1019.71 1019.24 1018.92 1018.38 1017.62 1016.98 1016.50 1015.90 1015.51 1015.23 1014.99 1014.68 1014.32 1013.84 1013.45 1013.11 1012.69
1022.33 1021.40 1021.36 1021.18 1021.07 1021.38 1021.80 1022.00 1022.14 1022.18 1022.28 1022.61 1022.95 1023.06 1023.16 1023.30 1023.18 1022.97 1022.75 1022.50 1022.26 1022.07 1021.75 1021.21 1020.67 1020.24 1019.82 1019.40 1019.03 1018.59 1018.04 1017.43 1016.85 1016.35 1015.82 1015.33 1014.92 1014.64 1014.15 1013.73 1013.53 1013.11 1012.73 1012.47
1021.01 1020.44 1020.71 1021.15 1021.60 1021.67 1021.70 1022.19 1022.67 1022.89 1022.78 1022.91 1023.07 1023.28 1023.27 1023.17 1022.99 1022.79 1022.56 1022.29 1022.09 1021.92 1021.62 1021.11 1020.60 1019.99 1019.41 1019.13 1018.85 1018.45 1017.78 1017.13 1016.70 1016.20 1015.70 1015.32 1014.82 1014.11 1013.73 1013.31 1012.94 1012.59 1012.25 1012.00
1020.84 1020.68 1021.12 1021.15 1021.48 1022.06 1022.25 1022.29 1022.64 1022.82 1023.05 1023.15 1023.30 1023.49 1023.47 1023.32 1023.06 1022.66 1022.62 1022.52 1022.35 1021.97 1021.50 1021.03 1020.46 1019.83 1019.25 1018.93 1018.67 1018.36 1018.00 1017.29 1016.65 1016.13 1015.68 1015.26 1014.79 1014.48 1013.75 1012.75 1012.64 1012.18 1011.87 1011.57
1021.09 1021.23 1021.71 1021.76 1021.79 1022.17 1022.51 1022.58 1022.70 1022.97 1023.16 1023.34 1023.53 1023.57 1023.63 1023.46 1023.03 1022.85 1022.54 1022.30 1022.06 1021.75 1021.25 1020.77 1020.26 1019.59 1019.07 1018.73 1018.42 1017.97 1017.54 1017.06 1016.58 1015.92 1015.37 1014.87 1014.49 1014.07 1013.75 1013.28 1012.57 1011.90 1011.39 1011.24
1021.40 1021.31 1021.29 1021.42 1021.90 1022.34 1022.71 1023.02 1023.17 1023.27 1023.38 1023.53 1023.56 1023.63 1023.57 1023.43 1023.06 1022.75 1022.37 1022.07 1021.78 1021.43 1020.81 1020.33 1019.92 1019.14 1018.58 1018.31 1018.16 1017.73 1017.21 1016.58 1016.00 1015.45 1014.94 1014.47 1013.99 1013.52 1013.10 1012.64 1012.07 1011.44 1010.75 1010.17
1021.71 1021.83 1022.01 1022.18 1022.54 1022.58 1022.87 1023.19 1023.40 1023.48 1023.41 1023.44 1023.50 1023.47 1023.35 1023.28 1022.90 1022.47 1022.01 1021.67 1021.59 1021.00 1020.32 1019.94 1019.39 1018.59 1018.19 1017.92 1017.64 1017.22 1016.67 1016.05 1015.50 1015.03 1014.48 1013.93 1013.39 1012.87 1012.32 1011.79 1011.21 1010.66 1010.04 1009.30
1021.77 1022.10 1022.25 1022.57 1022.94 1023.04 1023.18 1023.41 1023.54 1023.56 1023.53 1023.43 1023.16 1023.03 1022.92 1022.75 1022.44 1021.96 1021.48 1021.00 1020.78 1020.37 1019.83 1019.40 1018.76 1018.19 1017.80 1017.49 1017.25 1016.78 1016.28 1015.58 1014.95 1014.45 1014.10 1013.60 1013.04 1012.45 1011.82 1011.18 1010.50 1009.87 1009.17 1008.64
1021.95 1022.24 1022.33 1022.72 1023.19 1023.34 1023.26 1023.22 1023.30 1023.26 1023.20 1022.91 1022.72 1022.62 1022.41 1022.15 1021.73 1021.13 1020.64 1020.25 1019.93 1019.45 1018.82 1018.28 1017.96 1017.59 1017.16 1016.83 1016.53 1016.15 1015.76 1015.13 1014.50 1013.99 1013.46 1012.95 1012.50 1011.96 1011.34 1010.80 1010.17 1009.48 1008.63 1007.99
1022.13 1022.46 1022.63 1022.81 1023.02 1023.19 1023.17 1023.08 1022.98 1022.84 1022.64 1022.44 1022.37 1022.05 1021.70 1021.34 1020.88 1020.31 1019.91 1019.91 1019.57 1019.00 1017.65 1017.17 1016.90 1016.70 1016.44 1016.07 1015.82 1015.39 1014.97 1014.44 1013.88 1013.29 1012.74 1012.03 1011.32 1010.79 1010.35 1009.91 1009.40 1008.79 1008.15 1007.47
1022.24 1022.50 1022.59 1022.70 1022.81 1022.81 1022.68 1022.43 1022.27 1022.13 1021.83 1021.84 1021.60 1021.29 1020.89 1020.22 1019.84 1019.54 1019.34 1019.03 1018.46 1017.67 1016.75 1016.45 1016.18 1015.89 1015.54 1015.14 1014.84 1014.47 1013.99 1013.47 1012.89 1012.27 1011.74 1011.22 1010.62 1009.87 1009.14 1008.69 1008.25 1007.72 1007.22 1006.76
1022.12 1022.30 1022.42 1022.52 1022.48 1022.42 1022.28 1022.02 1021.95 1021.61 1021.23 1021.17 1021.01 1020.45 1019.93 1019.19 1018.95 1018.70 1018.58 1018.08 1016.39 1016.10 1015.88 1015.66 1015.44 1015.04 1014.73 1014.35 1013.95 1013.59 1013.00 1012.45 1011.85 1011.25 1010.73 1010.20 1009.58 1008.95 1008.29 1007.73 1007.23 1006.75 1006.22 1005.80
1021.96 1022.03 1022.03 1022.04 1022.00 1021.66 1021.34 1021.23 1021.12 1020.81 1020.56 1020.24 1019.84 1019.51 1019.16 1018.47 1018.07 1017.66 1017.25 1016.90 1015.41 1015.17 1015.04 1014.75 1014.38 1014.03 1013.74 1013.37 1012.92 1012.48 1012.03 1011.50 1010.87 1010.30 1009.77 1009.19 1008.56 1007.97 1007.36 1006.76 1006.22 1005.78 1005.32 1004.87
1021.60 1021.51 1021.37 1021.35 1021.24 1020.95 1020.64 1020.46 1020.03 1019.87 1019.57 1019.20 1018.91 1018.49 1018.19 1017.55 1017.13 1016.97 1016.09 1014.83 1014.66 1014.54 1014.32 1013.83 1013.34 1013.03 1012.68 1012.33 1011.92 1011.56 1011.09 1010.54 1009.95 1009.33 1008.77 1008.25 1007.73 1007.15 1006.50 1005.89 1005.32 1004.86 1004.36 1003.94
1020.87 1020.69 1020.59 1020.37 1020.30 1020.32 1020.04 1019.14 1018.93 1018.51 1018.16 1017.72 1017.31 1017.05 1017.01 1016.62 1015.93 1015.45 1014.97 1014.44 1013.92 1013.56 1013.30 1012.87 1012.42 1012.07 1011.77 1011.40 1011.01 1010.65 1010.21 1009.66 1009.07 1008.48 1007.86 1007.27 1006.73 1006.06 1005.39 1004.80 1004.28 1003.76 1003.36 1002.94
1020.04 1019.88 1019.68 1019.48 1019.41 1019.00 1018.59 1018.08 1017.85 1017.36 1017.06 1016.58 1016.14 1015.60 1015.45 1015.30 1015.37 1014.16 1013.92 1013.63 1013.18 1012.71 1012.21 1011.90 1011.62 1011.15 1010.81 1010.53 1010.23 1009.85 1009.37 1008.79 1008.10 1007.37 1006.81 1006.23 1005.61 1004.95 1004.55 1004.02 1003.54 1003.08 1002.70 1002.36
1019.14 1018.90 1018.49 1018.20 1018.09 1017.80 1017.32 1017.05 1016.83 1016.15 1015.91 1015.59 1015.02 1014.63 1014.26 1013.93 1013.70 1013.39 1012.98 1012.57 1012.36 1011.97 1011.43 1010.88 1010.65 1010.39 1010.05 1009.70 1009.31 1008.97 1008.53 1007.88 1007.08 1006.45 1005.88 1005.16 1004.74 1004.32 1003.91 1003.51 1003.13 1002.77 1002.42 1002.12
1017.99 1017.56 1017.41 1016.99 1016.58 1016.49 1016.25 1016.03 1015.79 1015.12 1014.66 1014.56 1014.26 1013.41 1013.06 1012.73 1012.52 1012.33 1011.95 1011.66 1011.23 1010.80 1010.45 1010.10 1009.72 1009.37 1009.17 1008.87 1008.44 1008.09 1007.62 1006.84 1006.22 1005.66 1004.92 1004.58 1004.29 1003.98 1003.62 1003.30 1002.94 1002.57 1002.23 1001.96
Wind_Speed
4 4 3 4 5 8 8 5 8 4 9 6 6 5 4 4 5 4 4 6 7 8 9 9 10 10 9 8 8 7 8 7 8 7 7 7 8 8 8 8 8 8 8 8
2 1 3 5 8 9 11 4 9 4 9 8 4 3 3 4 4 5 5 7 8 9 9 9 9 10 10 10 10 8 8 9 8 7 6 7 7 7 8 8 8 8 9 9
4 4 6 8 7 11 5 4 6 9 6 5 2 3 3 2 4 4 5 6 8 9 8 9 9 9 10 11 10 10 9 10 9 7 7 7 6 6 8 8 7 9 9 9
3 4 3 3 1 3 9 5 8 2 3 4 2 2 3 0 4 5 6 6 7 7 9 9 9 9 9 9 9 9 9 9 9 7 7 6 6 7 7 5 7 8 8 9
2 3 8 1 2 5 5 1 4 7 3 2 0 2 3 5 2 3 4 5 5 5 6 8 9 10 9 10 9 8 9 10 10 9 9 7 6 6 6 5 6 7 7 8
3 4 7 4 4 3 4 3 1 6 6 5 3 2 4 3 3 5 5 4 6 7 7 6 8 8 8 9 9 9 10 11 11 8 7 7 6 7 4 4 6 4 7 8
2 4 9 5 4 1 4 6 7 7 5 5 3 4 2 3 3 3 4 6 5 6 7 8 8 7 9 9 9 10 10 10 10 8 6 6 6 3 5 6 6 7 7 7
5 4 9 4 3 4 0 1 5 5 6 5 3 2 1 4 5 5 6 6 5 5 7 8 7 5 9 9 10 9 9 10 9 8 6 6 6 6 6 6 7 7 7 7
10 8 3 3 2 1 3 4 3 4 3 1 2 2 2 2 4 4 6 6 6 5 8 7 6 5 8 10 9 10 10 9 8 8 7 6 6 7 6 5 5 6 5 6
2 3 7 6 4 1 2 2 3 3 1 3 2 1 3 3 3 4 4 4 5 7 8 9 7 7 7 10 9 8 10 10 8 7 9 6 4 4 5 5 5 5 5 6
6 5 2 2 3 4 2 2 2 2 3 3 2 1 1 3 4 4 4 4 4 6 7 10 10 9 7 7 7 9 7 7 7 6 7 7 5 5 5 5 6 5 5 4
7 5 4 3 5 3 5 3 1 1 2 2 1 2 2 4 4 4 6 7 8 7 6 9 10 11 10 8 7 8 10 8 7 7 6 6 6 7 7 12 13 11 12 10
2 2 2 6 5 2 3 3 1 0 1 2 3 2 3 3 4 6 5 6 7 9 9 9 10 11 10 9 8 8 8 9 7 7 6 6 6 5 8 6 9 11 10 9
2 6 3 3 2 3 2 3 2 1 1 2 3 3 4 5 6 6 6 6 7 8 9 8 9 11 10 8 8 8 8 14 7 7 6 6 5 5 4 5 7 7 6 9
3 1 3 6 5 4 3 1 2 2 3 4 4 5 5 7 7 8 6 6 7 8 9 6 8 12 9 6 7 8 8 7 7 7 6 7 6 6 6 6 7 7 7 8
4 5 5 4 3 2 2 1 2 5 4 4 5 6 6 7 7 9 9 6 5 8 11 9 10 11 9 7 7 7 7 14 12 7 7 7 6 6 7 7 8 8 8 10
5 3 3 2 2 0 1 3 4 5 6 6 8 7 7 7 7 8 8 7 7 9 10 9 12 11 10 8 7 7 7 9 16 8 7 7 8 8 8 8 9 9 10 9
3 2 1 1 3 4 5 4 5 6 6 7 7 6 7 7 9 10 11 8 8 10 11 11 10 9 9 8 8 8 7 8 8 8 10 10 10 10 11 11 11 10 11 11
3 1 1 2 4 5 6 6 6 7 8 8 7 9 9 10 11 12 10 6 9 10 16 8 10 11 9 11 12 7 8 11 11 11 10 15 10 10 11 11 10 12 12 11
2 2 3 4 5 6 7 7 8 7 9 7 8 8 11 12 10 10 8 11 12 12 10 12 11 9 9 10 14 7 8 9 10 10 9 10 11 12 10 13 12 11 11 10
3 4 6 6 7 7 7 8 7 9 10 8 9 12 12 13 10 9 8 9 14 11 9 13 9 8 7 11 10 8 9 10 10 10 10 10 12 12 12 11 11 11 10 10
4 5 7 7 7 10 9 7 8 9 9 11 11 10 10 13 10 9 10 13 11 18 10 7 7 11 10 18 9 9 10 11 10 9 10 11 11 11 12 11 10 10 10 9
6 6 7 7 8 9 7 8 10 9 11 11 11 11 10 9 8 7 9 7 6 9 7 8 14 20 22 11 9 9 10 11 11 11 10 10 11 11 11 11 11 10 10 9
7 7 7 8 7 6 10 13 10 11 11 12 12 12 9 8 8 8 10 16 21 18 11 11 15 22 23 9 9 9 10 10 10 11 11 17 11 11 11 10 11 9 10 11
8 8 9 9 9 10 11 12 10 11 11 11 11 11 11 8 9 10 7 7 16 16 11 15 20 21 10 8 9 9 9 10 10 11 11 11 12 10 10 9 9 9 7 6
8 8 8 10 10 9 9 8 9 10 8 9 9 7 7 7 7 9 9 13 9 13 10 9 7 8 8 8 9 9 9 11 12 11 14 10 9 9 8 8 7 7 7 5
8 13 8 8 8 9 9 9 8 11 9 7 9 10 9 9 8 10 11 9 9 9 9 8 8 10 8 8 10 10 10 10 12 12 10 8 6 6 6 6 6 6 5 5
Wind_Direction
223 212 202 225 191 190 200 189 187 227 203 220 208 232 272 293 315 339 317 347 345 337 332 330 331 329 323 316 317 312 309 303 293 287 281 264 255 250 247 239 236 235 238 234
246 70 207 258 230 212 224 221 263 280 267 219 260 237 318 302 341 335 324 327 329 328 328 328 324 320 318 317 316 317 309 302 299 292 285 272 262 253 250 249 244 241 241 239
291 344 320 294 228 202 180 195 189 222 215 172 173 264 270 354 31 15 339 316 320 317 311 312 317 318 319 320 318 320 315 310 306 299 289 282 274 263 256 250 247 246 247 243
264 345 260 266 292 175 199 223 215 244 197 146 231 279 304 62 63 338 327 323 324 321 325 326 320 320 320 324 320 318 316 313 316 310 294 291 282 268 263 255 252 254 256 251
172 213 292 110 188 145 173 288 218 205 217 255 165 63 75 114 21 306 299 298 287 298 305 315 322 322 324 321 319 321 323 322 321 319 308 303 289 280 273 266 259 247 239 250
157 182 229 205 194 179 161 282 292 137 156 164 125 99 243 353 334 328 323 311 314 320 314 305 319 322 323 324 325 327 328 320 315 312 304 302 298 296 281 249 252 247 265 257
248 299 293 253 226 225 145 212 173 158 162 161 183 199 229 296 321 305 292 314 316 321 315 306 312 322 327 324 325 318 315 315 313 312 305 291 293 272 280 282 279 281 276 274
177 218 273 172 81 200 242 124 152 154 162 159 170 295 282 310 319 323 321 318 316 313 308 307 312 323 323 321 321 314 312 314 314 311 306 299 293 293 290 287 284 280 281 284
184 209 257 255 256 154 166 156 172 155 144 157 193 199 285 294 323 317 315 312 307 296 302 296 296 301 308 313 319 321 317 312 311 313 309 305 307 304 305 297 283 284 281 282
130 230 218 238 268 232 360 123 124 92 126 167 197 268 290 302 314 310 302 307 313 321 329 326 324 308 283 299 308 310 310 313 314 314 318 315 305 291 293 291 288 280 280 279
261 280 324 243 174 153 101 68 111 146 164 164 190 229 265 314 315 310 306 314 322 322 321 319 324 320 313 302 310 317 309 295 301 305 306 308 293 285 283 266 251 277 274 267
221 201 158 205 159 146 146 143 55 358 85 56 22 321 303 313 310 316 328 330 328 315 304 311 317 319 322 329 328 325 327 331 322 315 314 310 311 312 276 275 285 281 274 262
213 122 79 116 119 134 142 147 154 180 15 355 333 305 304 292 295 319 309 297 295 302 302 302 307 311 315 320 324 321 310 310 309 312 307 310 315 314 318 318 280 287 290 284
111 121 83 190 172 161 145 119 75 68 334 310 290 307 301 302 302 290 283 282 291 291 293 291 295 298 305 303 311 312 309 307 295 300 297 299 294 290 280 288 304 305 272 272
99 128 141 121 122 117 101 65 40 358 311 296 270 265 281 282 283 284 279 275 282 285 282 284 292 293 297 286 288 298 302 300 299 292 288 286 284 277 269 267 265 275 290 272
117 87 91 89 112 90 105 101 311 295 301 296 287 277 268 270 283 291 295 287 294 300 299 299 292 289 293 294 290 296 290 292 299 293 292 292 281 273 276 271 270 267 271 276
118 148 166 151 158 273 287 290 258 265 279 277 271 275 283 282 280 276 277 268 256 264 272 275 275 285 284 288 284 290 290 292 294 296 296 295 295 291 284 278 275 274 271 271
116 110 87 197 280 298 299 273 276 278 271 270 280 279 278 275 275 282 281 284 288 289 279 266 261 265 273 279 279 282 280 284 288 285 297 297 298 297 298 296 291 285 283 277
145 150 216 237 249 258 270 271 264 253 265 268 277 280 273 271 272 274 280 271 275 277 277 265 259 269 269 273 283 273 284 297 297 294 288 287 291 290 290 291 285 284 280 279
178 232 254 261 248 226 259 256 258 260 263 258 262 267 271 272 272 274 276 263 263 260 274 282 284 278 274 277 286 273 278 281 282 285 283 281 282 289 289 279 276 275 277 274
265 278 280 279 280 275 254 258 261 268 273 257 258 267 268 275 275 269 272 276 279 271 255 260 261 270 274 281 283 269 275 280 278 287 283 282 284 279 277 280 276 273 273 269
237 241 257 264 262 273 266 256 249 260 264 271 270 264 264 271 274 264 241 244 275 280 280 268 264 264 270 280 279 274 278 279 280 281 276 277 280 284 284 280 275 277 275 269
245 245 249 253 258 265 275 264 266 260 266 265 264 266 259 260 263 263 277 264 241 254 262 266 275 280 286 286 278 274 273 274 278 276 275 279 282 281 279 281 282 279 275 268
263 266 262 270 262 261 269 275 261 253 249 256 253 251 249 265 274 239 247 264 274 280 267 271 278 284 289 284 275 275 275 271 274 276 277 284 284 280 278 275 276 273 273 266
250 260 264 268 267 269 270 269 267 265 261 257 256 257 244 234 226 269 266 255 263 274 276 274 278 284 284 277 274 275 276 280 278 285 283 283 283 285 287 282 282 284 278 271
247 252 256 253 255 266 267 269 262 270 266 266 268 263 260 248 237 246 257 265 260 266 268 273 267 272 269 269 273 275 276 278 282 290 289 283 288 284 288 290 290 285 283 282
250 257 255 261 251 247 249 248 254 260 264 252 259 268 263 269 265 267 265 265 266 266 265 267 268 274 272 273 285 289 278 277 286 290 291 291 293 293 297 297 297 295 288 284